FW2087 Weather Reports


Display with metric or nautical units.
time (UTC)temp
F
wind
direction
speed
MPH
gust
MPH
rain 1hr
in
rain 24hr
in
rain mn
in
humidity
%
barometer
mb
20260505050103 61 330 0.0 1.0 0.00 0.00 0.00 72 1013.3
20260505041538 56 210 0.0 0.0 0.00 0.00 0.00 81 1013.4
20260505040024 57 210 0.0 0.0 0.00 0.00 0.00 81 1013.4
20260505034513 57 210 0.0 0.0 0.00 0.00 0.00 81 1013.4
20260505033049 57 210 0.0 0.0 0.00 0.00 0.00 78 1013.4
20260505031552 58 210 0.0 0.0 0.00 0.00 0.00 77 1013.5
20260505030011 59 210 0.0 0.0 0.00 0.00 0.00 75 1013.5
20260505024607 60 210 0.0 0.0 0.00 0.00 0.00 73 1013.7
20260505023051 62 210 0.0 1.0 0.00 0.00 0.00 70 1013.6
20260505021539 64 210 0.0 0.0 0.00 0.00 0.00 67 1013.5
20260505020009 66 210 0.0 1.0 0.00 0.00 0.00 62 1013.5
20260505014553 67 217 0.0 1.0 0.00 0.00 0.00 61 1013.3
20260505013100 68 207 0.0 3.0 0.00 0.00 0.00 60 1013.3
20260505011539 68 204 0.0 3.0 0.00 0.00 0.00 59 1013.1
20260505010048 69 311 0.0 3.0 0.00 0.00 0.00 58 1013.2
20260505004537 69 207 0.0 2.0 0.00 0.00 0.00 60 1013.1
20260505003034 70 189 1.0 4.0 0.00 0.00 0.00 59 1012.9
20260505001507 71 219 0.0 3.0 0.00 0.00 0.00 58 1012.7
20260505000058 72 188 0.0 0.0 0.00 0.00 0.00 58 1012.6
20260504234549 73 211 0.0 2.0 0.00 0.00 0.00 57 1012.7
20260504233058 74 219 0.0 4.0 0.00 0.00 0.00 55 1012.6
20260504231536 74 214 2.0 6.0 0.00 0.00 0.00 53 1012.6
20260504230011 74 220 2.0 7.0 0.00 0.00 0.00 51 1012.6
20260504224559 76 205 0.0 7.0 0.00 0.00 0.00 49 1012.6
20260504223041 76 228 3.0 10.0 0.00 0.00 0.00 49 1012.6
20260504221506 76 205 1.0 10.0 0.00 0.00 0.00 51 1012.6
20260504220056 77 184 2.0 10.0 0.00 0.00 0.00 49 1012.6
20260504214525 77 221 3.0 9.0 0.00 0.00 0.00 50 1012.7
20260504213035 77 151 1.0 6.0 0.00 0.00 0.00 51 1012.6
20260504211556 78 201 4.0 11.0 0.00 0.00 0.00 49 1012.7
20260504210003 78 248 3.0 7.0 0.00 0.00 0.00 50 1012.9
20260504204523 79 234 1.0 4.0 0.00 0.00 0.00 48 1013.1
20260504203035 78 200 0.0 8.0 0.00 0.00 0.00 50 1013.2
20260504201606 78 190 0.0 8.0 0.00 0.00 0.00 49 1013.4
20260504200005 78 124 2.0 7.0 0.00 0.00 0.00 51 1013.6
20260504194524 78 281 3.0 7.0 0.00 0.00 0.00 52 1013.7
20260504193037 77 121 0.0 5.0 0.00 0.00 0.00 53 1014.0
20260504191604 78 241 1.0 5.0 0.00 0.00 0.00 54 1014.3
20260504190013 77 211 0.0 3.0 0.00 0.00 0.00 56 1014.5
20260504184557 76 212 2.0 6.0 0.00 0.00 0.00 54 1014.7
20260504183054 76 210 1.0 8.0 0.00 0.00 0.00 55 1014.9
20260504181507 75 307 0.0 6.0 0.00 0.00 0.00 54 1015.2
20260504180022 74 167 1.0 6.0 0.00 0.00 0.00 54 1015.4
20260504174541 74 338 0.0 6.0 0.00 0.00 0.00 55 1015.4
20260504173050 74 224 4.0 10.0 0.00 0.00 0.00 53 1015.7
20260504171613 74 8 0.0 6.0 0.00 0.00 0.00 54 1015.6
20260504100105 42 141 0.0 0.0 0.00 0.00 0.00 92 1017.6
20260504081536 45 141 0.0 0.0 0.00 0.00 0.00 88 1017.9
20260504060106 45 141 0.0 0.0 0.00 0.00 0.00 89 1018.2